Time,TemperatureF,DewpointF,PressureIn,WindDirection,WindDirectionDegrees,WindSpeedMPH,WindSpeedGustMPH,Humidity,HourlyPrecipIn,Conditions,Clouds,dailyrainin,SoftwareType,DateUTC
2013-07-01 00:00:00,70.6,11.3,29.85,SE,135,1.8,4.5,1,0.00,,,0.00,WUHU216HW,2013-07-01 04:00:00,
2013-07-01 00:05:00,70.6,11.3,29.85,SSW,203,0.4,2.9,1,0.00,,,0.00,WUHU216HW,2013-07-01 04:05:00,
2013-07-01 00:10:00,70.6,11.3,29.85,SW,225,1.8,1.8,1,0.00,,,0.00,WUHU216HW,2013-07-01 04:10:00,
2013-07-01 00:15:00,70.6,11.3,29.85,SW,225,1.8,2.5,1,0.00,,,0.00,WUHU216HW,2013-07-01 04:15:00,
2013-07-01 00:20:00,70.6,11.3,29.85,SW,225,2.5,2.5,1,0.00,,,0.00,WUHU216HW,2013-07-01 04:20:00,
2013-07-01 00:25:00,70.6,11.3,29.85,SW,225,2.5,2.5,1,0.00,,,0.00,WUHU216HW,2013-07-01 04:25:00,
2013-07-01 00:30:00,70.6,11.3,29.85,SSW,203,0.4,2.5,1,0.00,,,0.00,WUHU216HW,2013-07-01 04:30:00,
2013-07-01 00:35:00,70.6,11.3,29.85,SSW,203,0.4,2.5,1,0.00,,,0.00,WUHU216HW,2013-07-01 04:35:00,
2013-07-01 00:40:00,70.6,11.3,29.85,SW,225,0.4,1.6,1,0.00,,,0.00,WUHU216HW,2013-07-01 04:40:00,
2013-07-01 00:45:00,70.6,11.3,29.85,SW,225,0.4,1.6,1,0.00,,,0.00,WUHU216HW,2013-07-01 04:45:00,
2013-07-01 00:50:00,70.6,11.3,29.86,WSW,248,0.9,2.0,1,0.00,,,0.00,WUHU216HW,2013-07-01 04:50:00,
2013-07-01 00:55:00,70.6,11.3,29.86,WSW,248,0.9,1.1,1,0.00,,,0.00,WUHU216HW,2013-07-01 04:55:00,
2013-07-01 01:00:00,70.6,11.3,29.86,WSW,248,1.1,1.1,1,0.00,,,0.00,WUHU216HW,2013-07-01 05:00:00,
2013-07-01 01:05:00,70.6,11.3,29.86,SW,225,0.2,1.1,1,0.00,,,0.00,WUHU216HW,2013-07-01 05:05:00,
2013-07-01 01:10:00,70.6,11.3,29.86,WSW,248,1.3,1.8,1,0.00,,,0.00,WUHU216HW,2013-07-01 05:10:00,
2013-07-01 01:15:00,70.6,11.3,29.86,West,270,1.1,2.5,1,0.00,,,0.00,WUHU216HW,2013-07-01 05:15:00,
2013-07-01 01:20:00,70.6,11.3,29.86,SW,225,2.9,2.9,1,0.00,,,0.00,WUHU216HW,2013-07-01 05:20:00,
2013-07-01 01:25:00,70.6,11.3,29.86,WSW,248,1.1,2.9,1,0.00,,,0.00,WUHU216HW,2013-07-01 05:25:00,
2013-07-01 01:30:00,70.6,11.3,29.86,WSW,248,1.8,1.8,1,0.00,,,0.00,WUHU216HW,2013-07-01 05:30:00,
2013-07-01 01:35:00,70.6,11.3,29.86,SSE,158,0.0,2.0,1,0.00,,,0.00,WUHU216HW,2013-07-01 05:35:00,
2013-07-01 01:45:00,70.6,11.3,29.85,SW,225,1.1,1.8,1,0.00,,,0.00,WUHU216HW,2013-07-01 05:45:00,
2013-07-01 01:50:00,70.6,11.3,29.85,SSE,158,1.6,1.8,1,0.00,,,0.00,WUHU216HW,2013-07-01 05:50:00,
2013-07-01 01:55:00,70.6,11.3,29.85,SSE,158,0.0,1.6,1,0.00,,,0.00,WUHU216HW,2013-07-01 05:55:00,
2013-07-01 02:00:00,70.6,11.3,29.85,South,180,1.8,1.8,1,0.00,,,0.00,WUHU216HW,2013-07-01 06:00:00,
2013-07-01 02:05:00,70.6,11.3,29.85,SSW,203,0.2,1.8,1,0.00,,,0.00,WUHU216HW,2013-07-01 06:05:00,
2013-07-01 02:10:00,70.6,11.3,29.85,SSW,203,0.9,1.1,1,0.00,,,0.00,WUHU216HW,2013-07-01 06:10:00,
2013-07-01 02:15:00,70.6,11.3,29.85,SSE,158,1.8,2.5,1,0.00,,,0.00,WUHU216HW,2013-07-01 06:15:00,
2013-07-01 02:20:00,70.6,11.3,29.85,SW,225,1.1,2.5,1,0.00,,,0.00,WUHU216HW,2013-07-01 06:20:00,
2013-07-01 02:25:00,70.6,11.3,29.84,East,90,0.9,2.0,1,0.00,,,0.00,WUHU216HW,2013-07-01 06:25:00,
2013-07-01 02:30:00,70.6,11.3,29.84,South,180,1.1,2.0,1,0.00,,,0.00,WUHU216HW,2013-07-01 06:30:00,
2013-07-01 02:35:00,70.6,11.3,29.84,SW,225,2.0,2.0,1,0.00,,,0.00,WUHU216HW,2013-07-01 06:35:00,
2013-07-01 02:40:00,70.6,11.3,29.84,SW,225,0.4,2.0,1,0.00,,,0.00,WUHU216HW,2013-07-01 06:40:00,
2013-07-01 02:45:00,70.6,11.3,29.84,SW,225,0.4,1.3,1,0.00,,,0.00,WUHU216HW,2013-07-01 06:45:00,
2013-07-01 02:50:00,70.6,11.3,29.84,NE,45,0.4,1.1,1,0.00,,,0.00,WUHU216HW,2013-07-01 06:50:00,
2013-07-01 02:55:00,70.6,11.3,29.84,NE,45,1.1,1.1,1,0.00,,,0.00,WUHU216HW,2013-07-01 06:55:00,
2013-07-01 03:00:00,70.6,11.3,29.84,South,180,1.1,1.1,1,0.00,,,0.00,WUHU216HW,2013-07-01 07:00:00,
2013-07-01 03:05:00,70.6,11.3,29.84,South,180,1.3,3.6,1,0.00,,,0.00,WUHU216HW,2013-07-01 07:05:00,
2013-07-01 03:10:00,70.4,11.3,29.84,South,180,1.3,3.8,1,0.00,,,0.00,WUHU216HW,2013-07-01 07:10:00,
2013-07-01 03:15:00,70.6,11.3,29.84,SSE,158,3.1,3.8,1,0.00,,,0.00,WUHU216HW,2013-07-01 07:15:00,
2013-07-01 03:20:00,70.6,11.3,29.84,South,180,4.0,4.0,1,0.00,,,0.00,WUHU216HW,2013-07-01 07:20:00,
2013-07-01 03:25:00,70.6,11.3,29.84,North,0,2.5,4.0,1,0.00,,,0.00,WUHU216HW,2013-07-01 07:25:00,
2013-07-01 03:30:00,70.6,11.3,29.84,South,180,1.8,2.5,1,0.00,,,0.00,WUHU216HW,2013-07-01 07:30:00,
2013-07-01 03:40:00,70.6,11.3,29.84,SW,225,1.6,4.7,1,0.00,,,0.00,WUHU216HW,2013-07-01 07:40:00,
2013-07-01 03:45:00,70.6,11.3,29.84,SSW,203,1.3,4.7,1,0.00,,,0.00,WUHU216HW,2013-07-01 07:45:00,
2013-07-01 03:50:00,70.6,11.3,29.84,NE,45,1.8,3.8,1,0.00,,,0.00,WUHU216HW,2013-07-01 07:50:00,
2013-07-01 03:55:00,70.4,11.3,29.84,SSW,203,1.1,2.5,1,0.00,,,0.00,WUHU216HW,2013-07-01 07:55:00,
2013-07-01 04:00:00,70.4,11.3,29.84,SSW,203,1.1,2.5,1,0.00,,,0.00,WUHU216HW,2013-07-01 08:00:00,
2013-07-01 04:05:00,70.4,11.3,29.84,West,270,0.7,2.2,1,0.00,,,0.00,WUHU216HW,2013-07-01 08:05:00,
2013-07-01 04:10:00,70.4,11.3,29.84,South,180,3.1,3.1,1,0.00,,,0.00,WUHU216HW,2013-07-01 08:10:00,
2013-07-01 04:15:00,70.4,11.3,29.84,SSW,203,1.1,3.1,1,0.00,,,0.00,WUHU216HW,2013-07-01 08:15:00,
2013-07-01 04:20:00,70.2,11.1,29.84,South,180,2.0,2.9,1,0.00,,,0.00,WUHU216HW,2013-07-01 08:20:00,
2013-07-01 04:25:00,70.2,11.1,29.84,South,180,2.5,2.9,1,0.00,,,0.00,WUHU216HW,2013-07-01 08:25:00,
2013-07-01 04:30:00,70.2,11.1,29.84,SSW,203,1.6,2.5,1,0.00,,,0.00,WUHU216HW,2013-07-01 08:30:00,
2013-07-01 04:35:00,70.2,11.1,29.84,SSW,203,0.7,1.8,1,0.00,,,0.00,WUHU216HW,2013-07-01 08:35:00,
2013-07-01 04:40:00,70.0,11.0,29.84,SSW,203,1.3,1.3,1,0.00,,,0.00,WUHU216HW,2013-07-01 08:40:00,
2013-07-01 04:45:00,70.0,11.0,29.85,SW,225,1.3,1.3,1,0.00,,,0.00,WUHU216HW,2013-07-01 08:45:00,
2013-07-01 04:50:00,70.0,11.0,29.85,SSW,203,1.6,1.8,1,0.00,,,0.00,WUHU216HW,2013-07-01 08:50:00,
2013-07-01 04:56:00,70.0,11.0,29.85,SSW,203,0.4,1.8,1,0.00,,,0.00,WUHU216HW,2013-07-01 08:56:00,
2013-07-01 05:01:00,70.0,11.0,29.85,SSW,203,0.0,1.8,1,0.00,,,0.00,WUHU216HW,2013-07-01 09:01:00,
2013-07-01 05:06:00,70.0,11.0,29.85,SSW,203,0.0,1.8,1,0.00,,,0.00,WUHU216HW,2013-07-01 09:06:00,
2013-07-01 05:11:00,70.0,11.0,29.85,South,180,0.9,1.1,1,0.00,,,0.00,WUHU216HW,2013-07-01 09:11:00,
2013-07-01 05:16:00,70.0,11.0,29.85,SSW,203,0.9,0.9,1,0.00,,,0.00,WUHU216HW,2013-07-01 09:16:00,
2013-07-01 05:21:00,70.0,11.0,29.85,SSW,203,1.3,1.3,1,0.00,,,0.00,WUHU216HW,2013-07-01 09:21:00,
2013-07-01 05:26:00,70.0,11.0,29.86,SSW,203,1.3,2.7,1,0.00,,,0.00,WUHU216HW,2013-07-01 09:26:00,
2013-07-01 05:31:00,70.0,11.0,29.86,North,0,0.0,2.7,1,0.00,,,0.00,WUHU216HW,2013-07-01 09:31:00,
2013-07-01 05:36:00,70.0,11.0,29.86,SW,225,1.1,1.3,1,0.00,,,0.00,WUHU216HW,2013-07-01 09:36:00,
2013-07-01 05:41:00,70.0,11.0,29.86,SW,225,0.0,1.1,1,0.00,,,0.00,WUHU216HW,2013-07-01 09:41:00,
2013-07-01 05:46:00,70.0,11.0,29.86,NNE,23,0.4,1.8,1,0.00,,,0.00,WUHU216HW,2013-07-01 09:46:00,
2013-07-01 05:51:00,70.0,11.0,29.86,NNE,23,1.1,1.8,1,0.00,,,0.00,WUHU216HW,2013-07-01 09:51:00,
2013-07-01 05:56:00,70.0,11.0,29.86,NNE,23,0.0,1.1,1,0.00,,,0.00,WUHU216HW,2013-07-01 09:56:00,
2013-07-01 06:01:00,70.2,11.1,29.86,NNE,23,0.0,0.9,1,0.00,,,0.00,WUHU216HW,2013-07-01 10:01:00,
2013-07-01 06:06:00,70.2,11.1,29.86,South,180,0.0,1.1,1,0.00,,,0.00,WUHU216HW,2013-07-01 10:06:00,
2013-07-01 06:11:00,70.2,11.1,29.87,SSW,203,0.4,1.1,1,0.00,,,0.00,WUHU216HW,2013-07-01 10:11:00,
2013-07-01 06:16:00,70.2,11.1,29.86,SSW,203,0.2,1.1,1,0.00,,,0.00,WUHU216HW,2013-07-01 10:16:00,
2013-07-01 06:21:00,70.2,11.1,29.87,SSW,203,0.2,1.1,1,0.00,,,0.00,WUHU216HW,2013-07-01 10:21:00,
2013-07-01 06:26:00,70.2,11.1,29.87,SSW,203,0.0,0.4,1,0.00,,,0.00,WUHU216HW,2013-07-01 10:26:00,
2013-07-01 06:31:00,70.2,11.1,29.87,SSW,203,0.9,0.9,1,0.00,,,0.00,WUHU216HW,2013-07-01 10:31:00,
2013-07-01 06:36:00,70.4,11.3,29.87,SSW,203,0.0,0.9,1,0.00,,,0.00,WUHU216HW,2013-07-01 10:36:00,
2013-07-01 06:41:00,70.4,11.3,29.87,SSW,203,1.3,1.3,1,0.00,,,0.00,WUHU216HW,2013-07-01 10:41:00,
2013-07-01 06:46:00,70.6,11.3,29.87,ESE,113,0.0,1.3,1,0.00,,,0.00,WUHU216HW,2013-07-01 10:46:00,
2013-07-01 06:51:00,70.6,11.3,29.87,SSW,203,0.9,1.3,1,0.00,,,0.00,WUHU216HW,2013-07-01 10:51:00,
2013-07-01 06:56:00,70.6,11.3,29.86,West,270,0.4,1.1,1,0.00,,,0.00,WUHU216HW,2013-07-01 10:56:00,
2013-07-01 07:01:00,70.7,11.5,29.86,NNE,23,1.8,1.8,1,0.00,,,0.00,WUHU216HW,2013-07-01 11:01:00,
2013-07-01 07:06:00,70.7,11.5,29.87,West,270,0.9,1.8,1,0.00,,,0.00,WUHU216HW,2013-07-01 11:06:00,
2013-07-01 07:11:00,70.7,11.5,29.87,South,180,1.1,1.1,1,0.00,,,0.00,WUHU216HW,2013-07-01 11:11:00,
2013-07-01 07:16:00,71.1,11.8,29.87,South,180,2.5,2.5,1,0.00,,,0.00,WUHU216HW,2013-07-01 11:16:00,
2013-07-01 07:21:00,71.1,11.8,29.87,WSW,248,0.7,2.5,1,0.00,,,0.00,WUHU216HW,2013-07-01 11:21:00,
2013-07-01 07:26:00,71.5,12.1,29.87,SSW,203,0.4,2.5,1,0.00,,,0.00,WUHU216HW,2013-07-01 11:26:00,
2013-07-01 07:31:00,71.6,12.2,29.88,SSW,203,2.2,2.5,1,0.00,,,0.00,WUHU216HW,2013-07-01 11:31:00,
2013-07-01 07:36:00,71.5,12.1,29.88,SSE,158,2.2,2.7,1,0.00,,,0.00,WUHU216HW,2013-07-01 11:36:00,
2013-07-01 07:41:00,71.5,12.1,29.87,WSW,248,0.4,2.7,1,0.00,,,0.00,WUHU216HW,2013-07-01 11:41:00,
2013-07-01 07:46:00,71.3,12.0,29.87,WSW,248,2.5,2.5,1,0.00,,,0.00,WUHU216HW,2013-07-01 11:46:00,
2013-07-01 07:51:00,71.3,12.0,29.87,SSW,203,1.1,2.7,1,0.00,,,0.00,WUHU216HW,2013-07-01 11:51:00,
2013-07-01 07:56:00,71.5,12.1,29.87,West,270,0.9,2.7,1,0.00,,,0.00,WUHU216HW,2013-07-01 11:56:00,
2013-07-01 08:01:00,71.5,12.1,29.88,WSW,248,1.3,1.3,1,0.00,,,0.00,WUHU216HW,2013-07-01 12:01:00,
2013-07-01 08:06:00,71.6,12.2,29.88,NE,45,0.4,1.3,1,0.00,,,0.00,WUHU216HW,2013-07-01 12:06:00,
2013-07-01 08:11:00,71.8,12.4,29.88,ESE,113,1.6,1.6,1,0.00,,,0.00,WUHU216HW,2013-07-01 12:11:00,
2013-07-01 08:16:00,71.8,12.4,29.88,West,270,0.9,2.0,1,0.00,,,0.00,WUHU216HW,2013-07-01 12:16:00,
2013-07-01 08:21:00,72.0,12.5,29.88,ESE,113,0.9,2.0,1,0.00,,,0.00,WUHU216HW,2013-07-01 12:21:00,
2013-07-01 08:26:00,72.0,12.5,29.88,NNE,23,1.8,1.8,1,0.00,,,0.00,WUHU216HW,2013-07-01 12:26:00,
2013-07-01 08:31:00,72.2,12.7,29.88,SE,135,1.1,1.8,1,0.00,,,0.00,WUHU216HW,2013-07-01 12:31:00,
2013-07-01 08:36:00,72.4,12.8,29.88,SW,225,1.8,2.2,1,0.00,,,0.00,WUHU216HW,2013-07-01 12:36:00,
2013-07-01 08:41:00,72.5,13.0,29.89,West,270,0.9,2.2,1,0.00,,,0.00,WUHU216HW,2013-07-01 12:41:00,
2013-07-01 08:46:00,72.5,13.0,29.89,SW,225,1.1,1.8,1,0.00,,,0.00,WUHU216HW,2013-07-01 12:46:00,
2013-07-01 08:51:00,72.9,13.2,29.89,West,270,1.1,1.8,1,0.00,,,0.00,WUHU216HW,2013-07-01 12:51:00,
2013-07-01 08:56:00,72.9,13.2,29.89,SW,225,2.0,2.0,1,0.00,,,0.00,WUHU216HW,2013-07-01 12:56:00,
2013-07-01 09:01:00,73.1,13.4,29.89,ESE,113,0.7,2.0,1,0.00,,,0.00,WUHU216HW,2013-07-01 13:01:00,
2013-07-01 09:06:00,73.1,13.4,29.89,SW,225,2.5,3.4,1,0.00,,,0.00,WUHU216HW,2013-07-01 13:06:00,
2013-07-01 09:11:00,73.1,13.4,29.89,SSW,203,1.3,3.4,1,0.00,,,0.00,WUHU216HW,2013-07-01 13:11:00,
2013-07-01 09:16:00,73.3,13.5,29.89,SE,135,1.1,2.5,1,0.00,,,0.00,WUHU216HW,2013-07-01 13:16:00,
2013-07-01 09:21:00,73.3,13.5,29.89,NE,45,2.2,2.9,1,0.00,,,0.00,WUHU216HW,2013-07-01 13:21:00,
2013-07-01 09:26:00,73.6,13.8,29.89,SSE,158,2.2,2.9,1,0.00,,,0.00,WUHU216HW,2013-07-01 13:26:00,
2013-07-01 09:31:00,73.8,14.0,29.89,South,180,1.1,2.7,1,0.00,,,0.00,WUHU216HW,2013-07-01 13:31:00,
2013-07-01 09:36:00,74.9,14.7,29.89,SSE,158,1.1,2.7,1,0.00,,,0.00,WUHU216HW,2013-07-01 13:36:00,
2013-07-01 09:41:00,75.2,14.9,29.89,SSW,203,0.7,2.5,1,0.00,,,0.00,WUHU216HW,2013-07-01 13:41:00,
2013-07-01 09:46:00,75.6,15.2,29.89,SW,225,0.9,2.5,1,0.00,,,0.00,WUHU216HW,2013-07-01 13:46:00,
2013-07-01 09:51:00,75.8,15.4,29.89,SW,225,0.7,2.5,1,0.00,,,0.00,WUHU216HW,2013-07-01 13:51:00,
2013-07-01 09:56:00,76.3,15.9,29.89,SSW,203,2.5,2.5,1,0.00,,,0.00,WUHU216HW,2013-07-01 13:56:00,
2013-07-01 10:01:00,76.3,15.9,29.89,South,180,3.4,3.4,1,0.00,,,0.00,WUHU216HW,2013-07-01 14:01:00,
2013-07-01 10:06:00,75.4,15.1,29.89,NE,45,0.0,3.4,1,0.00,,,0.00,WUHU216HW,2013-07-01 14:06:00,
2013-07-01 10:11:00,74.7,14.6,29.89,SW,225,1.6,3.4,1,0.00,,,0.00,WUHU216HW,2013-07-01 14:11:00,
2013-07-01 10:16:00,75.1,14.9,29.89,SSE,158,2.0,2.2,1,0.00,,,0.00,WUHU216HW,2013-07-01 14:16:00,
2013-07-01 10:21:00,75.2,14.9,29.90,WSW,248,0.0,2.2,1,0.00,,,0.00,WUHU216HW,2013-07-01 14:21:00,
2013-07-01 10:26:00,75.2,14.9,29.90,SSE,158,0.0,1.8,1,0.00,,,0.00,WUHU216HW,2013-07-01 14:26:00,
2013-07-01 10:31:00,74.9,14.7,29.90,SSE,158,0.0,0.0,1,0.00,,,0.00,WUHU216HW,2013-07-01 14:31:00,
2013-07-01 10:36:00,74.5,14.4,29.90,SSE,158,0.0,0.4,1,0.00,,,0.00,WUHU216HW,2013-07-01 14:36:00,
2013-07-01 10:41:00,74.2,14.2,29.89,NE,45,0.4,0.4,1,0.00,,,0.00,WUHU216HW,2013-07-01 14:41:00,
2013-07-01 10:46:00,73.8,14.0,29.89,NNE,23,0.4,1.3,1,0.00,,,0.00,WUHU216HW,2013-07-01 14:46:00,
2013-07-01 10:51:00,73.3,13.5,29.89,NNE,23,0.4,1.3,1,0.00,,,0.00,WUHU216HW,2013-07-01 14:51:00,
2013-07-01 10:56:00,72.9,13.2,29.88,North,0,0.7,1.1,1,0.00,,,0.00,WUHU216HW,2013-07-01 14:56:00,
2013-07-01 11:01:00,72.5,13.0,29.89,WNW,293,0.4,1.3,1,0.00,,,0.00,WUHU216HW,2013-07-01 15:01:00,
2013-07-01 11:06:00,72.4,12.8,29.88,NNW,338,1.1,1.8,1,0.00,,,0.00,WUHU216HW,2013-07-01 15:06:00,
2013-07-01 11:11:00,72.4,12.8,29.88,NE,45,2.5,2.5,1,0.00,,,0.00,WUHU216HW,2013-07-01 15:11:00,
2013-07-01 11:16:00,72.2,12.7,29.89,NNE,23,0.4,2.5,1,0.00,,,0.00,WUHU216HW,2013-07-01 15:16:00,
2013-07-01 11:21:00,71.8,12.4,29.90,SW,225,0.4,2.5,1,0.00,,,0.00,WUHU216HW,2013-07-01 15:21:00,
2013-07-01 11:26:00,71.8,12.4,29.88,NNE,23,0.2,2.5,1,0.00,,,0.00,WUHU216HW,2013-07-01 15:26:00,
2013-07-01 11:31:00,71.6,12.2,29.88,NNW,338,1.1,2.5,1,0.00,,,0.00,WUHU216HW,2013-07-01 15:31:00,
2013-07-01 11:36:00,71.6,12.2,29.89,NNW,338,0.0,1.1,1,0.00,,,0.00,WUHU216HW,2013-07-01 15:36:00,
2013-07-01 11:41:00,72.2,12.7,29.89,North,0,1.1,1.1,1,0.00,,,0.00,WUHU216HW,2013-07-01 15:41:00,
2013-07-01 11:46:00,72.2,12.7,29.89,North,0,0.9,1.1,1,0.00,,,0.00,WUHU216HW,2013-07-01 15:46:00,
2013-07-01 11:51:00,72.5,13.0,29.90,South,180,2.2,2.2,1,0.00,,,0.00,WUHU216HW,2013-07-01 15:51:00,
2013-07-01 11:56:00,72.7,13.2,29.91,SSW,203,1.1,2.2,1,0.00,,,0.00,WUHU216HW,2013-07-01 15:56:00,
2013-07-01 12:02:00,72.4,12.8,29.91,SSE,158,1.3,1.3,1,0.00,,,0.00,WUHU216HW,2013-07-01 16:02:00,
2013-07-01 12:07:00,72.2,12.7,29.91,SW,225,1.6,1.6,1,0.00,,,0.00,WUHU216HW,2013-07-01 16:07:00,
2013-07-01 12:12:00,72.0,12.5,29.91,SW,225,0.7,2.0,1,0.00,,,0.00,WUHU216HW,2013-07-01 16:12:00,
2013-07-01 12:17:00,72.0,12.5,29.90,WSW,248,0.0,2.0,1,0.00,,,0.00,WUHU216HW,2013-07-01 16:17:00,
2013-07-01 12:22:00,71.8,12.4,29.90,WSW,248,0.4,0.9,1,0.00,,,0.00,WUHU216HW,2013-07-01 16:22:00,
2013-07-01 12:27:00,72.0,12.5,29.91,SW,225,1.1,1.8,1,0.00,,,0.00,WUHU216HW,2013-07-01 16:27:00,
2013-07-01 12:32:00,71.8,12.4,29.91,SSW,203,0.7,1.8,1,0.00,,,0.00,WUHU216HW,2013-07-01 16:32:00,
2013-07-01 12:37:00,71.6,12.2,29.91,SSE,158,1.1,1.1,1,0.00,,,0.00,WUHU216HW,2013-07-01 16:37:00,
2013-07-01 12:42:00,71.6,12.2,29.91,SSW,203,1.1,1.8,1,0.00,,,0.00,WUHU216HW,2013-07-01 16:42:00,
2013-07-01 12:47:00,71.6,12.2,29.91,WSW,248,0.7,1.8,1,0.00,,,0.00,WUHU216HW,2013-07-01 16:47:00,
2013-07-01 12:52:00,71.6,12.2,29.91,SW,225,1.6,2.2,1,0.00,,,0.00,WUHU216HW,2013-07-01 16:52:00,
2013-07-01 12:57:00,71.8,12.4,29.91,South,180,0.7,2.2,1,0.00,,,0.00,WUHU216HW,2013-07-01 16:57:00,
2013-07-01 13:02:00,71.8,12.4,29.91,SSW,203,2.0,2.0,1,0.00,,,0.00,WUHU216HW,2013-07-01 17:02:00,
2013-07-01 13:07:00,71.8,12.4,29.91,SSW,203,1.6,2.7,1,0.00,,,0.00,WUHU216HW,2013-07-01 17:07:00,
2013-07-01 13:12:00,71.8,12.4,29.91,SW,225,1.3,2.7,1,0.00,,,0.00,WUHU216HW,2013-07-01 17:12:00,
2013-07-01 13:17:00,71.8,12.4,29.91,WSW,248,2.0,2.5,1,0.00,,,0.00,WUHU216HW,2013-07-01 17:17:00,
2013-07-01 13:22:00,72.2,12.7,29.91,WSW,248,0.4,2.0,1,0.00,,,0.00,WUHU216HW,2013-07-01 17:22:00,
2013-07-01 13:27:00,72.5,13.0,29.91,SW,225,1.1,1.8,1,0.00,,,0.00,WUHU216HW,2013-07-01 17:27:00,
2013-07-01 13:32:00,72.7,13.2,29.91,SSE,158,3.4,3.4,1,0.00,,,0.00,WUHU216HW,2013-07-01 17:32:00,
2013-07-01 13:37:00,73.3,13.5,29.91,SSW,203,1.8,3.4,1,0.00,,,0.00,WUHU216HW,2013-07-01 17:37:00,
2013-07-01 13:42:00,73.8,14.0,29.91,SSE,158,2.2,2.5,1,0.00,,,0.00,WUHU216HW,2013-07-01 17:42:00,
2013-07-01 13:47:00,73.6,13.8,29.91,SSE,158,3.8,3.8,1,0.00,,,0.00,WUHU216HW,2013-07-01 17:47:00,
2013-07-01 13:52:00,73.4,13.7,29.91,South,180,2.2,3.8,1,0.00,,,0.00,WUHU216HW,2013-07-01 17:52:00,
2013-07-01 13:57:00,73.3,13.5,29.91,SSW,203,3.6,3.6,1,0.00,,,0.00,WUHU216HW,2013-07-01 17:57:00,
2013-07-01 14:02:00,73.1,13.4,29.91,SW,225,2.0,3.6,1,0.00,,,0.00,WUHU216HW,2013-07-01 18:02:00,
2013-07-01 14:07:00,73.3,13.5,29.91,SW,225,1.8,2.2,1,0.00,,,0.00,WUHU216HW,2013-07-01 18:07:00,
2013-07-01 14:12:00,73.6,13.8,29.91,SSE,158,2.5,2.7,1,0.00,,,0.00,WUHU216HW,2013-07-01 18:12:00,
2013-07-01 14:17:00,74.5,14.4,29.91,South,180,3.1,3.1,1,0.00,,,0.00,WUHU216HW,2013-07-01 18:17:00,
2013-07-01 14:22:00,74.5,14.4,29.91,SW,225,1.6,3.1,1,0.00,,,0.00,WUHU216HW,2013-07-01 18:22:00,
2013-07-01 14:27:00,74.2,14.2,29.91,NNW,338,1.6,2.9,1,0.00,,,0.00,WUHU216HW,2013-07-01 18:27:00,
2013-07-01 14:32:00,73.6,13.8,29.91,SW,225,2.5,2.9,1,0.00,,,0.00,WUHU216HW,2013-07-01 18:32:00,
2013-07-01 14:37:00,73.4,13.7,29.91,SW,225,2.7,2.7,1,0.00,,,0.00,WUHU216HW,2013-07-01 18:37:00,
2013-07-01 14:42:00,73.1,13.4,29.91,SSE,158,2.7,3.8,1,0.00,,,0.00,WUHU216HW,2013-07-01 18:42:00,
2013-07-01 14:47:00,73.1,13.4,29.92,WSW,248,2.5,3.8,1,0.00,,,0.00,WUHU216HW,2013-07-01 18:47:00,
2013-07-01 14:52:00,73.1,13.4,29.91,SSE,158,1.1,3.8,1,0.00,,,0.00,WUHU216HW,2013-07-01 18:52:00,
2013-07-01 14:57:00,73.1,13.4,29.91,SSE,158,1.8,2.0,1,0.00,,,0.00,WUHU216HW,2013-07-01 18:57:00,
2013-07-01 15:02:00,73.1,13.4,29.91,SW,225,1.8,2.0,1,0.00,,,0.00,WUHU216HW,2013-07-01 19:02:00,
2013-07-01 15:07:00,73.1,13.4,29.91,SW,225,2.0,2.5,1,0.00,,,0.00,WUHU216HW,2013-07-01 19:07:00,
2013-07-01 15:12:00,72.9,13.2,29.91,SSW,203,2.9,2.9,1,0.00,,,0.00,WUHU216HW,2013-07-01 19:12:00,
2013-07-01 15:17:00,73.1,13.4,29.91,SW,225,1.3,2.9,1,0.00,,,0.00,WUHU216HW,2013-07-01 19:17:00,
2013-07-01 15:22:00,73.1,13.4,29.91,SW,225,1.6,1.8,1,0.00,,,0.00,WUHU216HW,2013-07-01 19:22:00,
2013-07-01 15:27:00,73.3,13.5,29.91,WSW,248,1.8,1.8,1,0.00,,,0.00,WUHU216HW,2013-07-01 19:27:00,
2013-07-01 15:32:00,73.3,13.5,29.91,SSE,158,1.8,2.2,1,0.00,,,0.00,WUHU216HW,2013-07-01 19:32:00,
2013-07-01 15:37:00,73.3,13.5,29.91,West,270,1.3,2.2,1,0.00,,,0.00,WUHU216HW,2013-07-01 19:37:00,
2013-07-01 15:42:00,73.4,13.7,29.91,South,180,1.1,2.0,1,0.00,,,0.00,WUHU216HW,2013-07-01 19:42:00,
2013-07-01 15:47:00,73.4,13.7,29.91,SW,225,3.4,3.4,1,0.00,,,0.00,WUHU216HW,2013-07-01 19:47:00,
2013-07-01 15:52:00,73.4,13.7,29.91,SSW,203,1.8,3.4,1,0.00,,,0.00,WUHU216HW,2013-07-01 19:52:00,
2013-07-01 15:57:00,73.6,13.8,29.91,South,180,2.2,2.2,1,0.00,,,0.00,WUHU216HW,2013-07-01 19:57:00,
2013-07-01 16:02:00,73.4,13.7,29.91,SW,225,3.1,3.1,1,0.00,,,0.00,WUHU216HW,2013-07-01 20:02:00,
2013-07-01 16:07:00,73.6,13.8,29.91,ENE,68,1.1,4.7,1,0.00,,,0.00,WUHU216HW,2013-07-01 20:07:00,
2013-07-01 16:12:00,73.6,13.8,29.91,SW,225,1.8,4.7,1,0.00,,,0.00,WUHU216HW,2013-07-01 20:12:00,
2013-07-01 16:17:00,73.6,13.8,29.91,SSE,158,2.0,2.9,1,0.00,,,0.00,WUHU216HW,2013-07-01 20:17:00,
2013-07-01 16:22:00,73.4,13.7,29.91,SW,225,0.4,2.0,1,0.00,,,0.00,WUHU216HW,2013-07-01 20:22:00,
2013-07-01 16:27:00,73.4,13.7,29.91,SSW,203,0.0,1.3,1,0.00,,,0.00,WUHU216HW,2013-07-01 20:27:00,
2013-07-01 16:32:00,73.4,13.7,29.91,WSW,248,1.3,1.3,1,0.00,,,0.00,WUHU216HW,2013-07-01 20:32:00,
2013-07-01 16:37:00,73.4,13.7,29.91,South,180,0.2,1.6,1,0.00,,,0.00,WUHU216HW,2013-07-01 20:37:00,
2013-07-01 16:42:00,73.3,13.5,29.91,South,180,2.0,2.0,1,0.00,,,0.00,WUHU216HW,2013-07-01 20:42:00,
2013-07-01 16:47:00,73.1,13.4,29.91,South,180,4.7,4.7,1,0.00,,,0.00,WUHU216HW,2013-07-01 20:47:00,
2013-07-01 16:52:00,72.9,13.2,29.90,SSW,203,3.4,4.7,1,0.00,,,0.00,WUHU216HW,2013-07-01 20:52:00,
2013-07-01 16:57:00,72.9,13.2,29.90,East,90,0.4,3.4,1,0.00,,,0.00,WUHU216HW,2013-07-01 20:57:00,
2013-07-01 17:02:00,72.9,13.2,29.90,South,180,0.2,2.5,1,0.00,,,0.00,WUHU216HW,2013-07-01 21:02:00,
2013-07-01 17:07:00,72.7,13.2,29.90,South,180,0.7,2.5,1,0.00,,,0.00,WUHU216HW,2013-07-01 21:07:00,
2013-07-01 17:13:00,72.5,13.0,29.90,SW,225,1.8,3.1,1,0.00,,,0.00,WUHU216HW,2013-07-01 21:13:00,
2013-07-01 17:18:00,72.4,12.8,29.91,SSE,158,1.1,2.0,1,0.00,,,0.00,WUHU216HW,2013-07-01 21:18:00,
2013-07-01 17:23:00,72.4,12.8,29.91,SSW,203,2.5,2.5,1,0.00,,,0.00,WUHU216HW,2013-07-01 21:23:00,
2013-07-01 17:28:00,72.4,12.8,29.91,SSW,203,2.5,2.5,1,0.00,,,0.00,WUHU216HW,2013-07-01 21:28:00,
2013-07-01 17:33:00,72.7,13.2,29.91,WSW,248,1.3,2.5,1,0.00,,,0.00,WUHU216HW,2013-07-01 21:33:00,
2013-07-01 17:38:00,72.7,13.2,29.91,SSW,203,1.8,2.5,1,0.00,,,0.00,WUHU216HW,2013-07-01 21:38:00,
2013-07-01 17:43:00,72.7,13.2,29.91,SW,225,3.6,3.6,1,0.00,,,0.00,WUHU216HW,2013-07-01 21:43:00,
2013-07-01 17:48:00,72.7,13.2,29.91,SW,225,0.9,3.6,1,0.00,,,0.00,WUHU216HW,2013-07-01 21:48:00,
2013-07-01 17:53:00,72.5,13.0,29.91,SW,225,2.5,4.0,1,0.00,,,0.00,WUHU216HW,2013-07-01 21:53:00,
2013-07-01 17:58:00,72.5,13.0,29.91,SW,225,3.4,4.0,1,0.00,,,0.00,WUHU216HW,2013-07-01 21:58:00,
2013-07-01 18:03:00,72.5,13.0,29.91,South,180,1.6,3.4,1,0.00,,,0.00,WUHU216HW,2013-07-01 22:03:00,
2013-07-01 18:08:00,72.5,13.0,29.91,SSW,203,1.6,2.2,1,0.00,,,0.00,WUHU216HW,2013-07-01 22:08:00,
2013-07-01 18:13:00,72.4,12.8,29.91,South,180,0.9,2.2,1,0.00,,,0.00,WUHU216HW,2013-07-01 22:13:00,
2013-07-01 18:18:00,72.4,12.8,29.92,SSE,158,1.8,1.8,1,0.00,,,0.00,WUHU216HW,2013-07-01 22:18:00,
2013-07-01 18:23:00,72.4,12.8,29.92,SW,225,1.6,2.0,1,0.00,,,0.00,WUHU216HW,2013-07-01 22:23:00,
2013-07-01 18:28:00,72.2,12.7,29.92,SW,225,2.0,2.0,1,0.00,,,0.00,WUHU216HW,2013-07-01 22:28:00,
2013-07-01 18:33:00,72.2,12.7,29.92,SW,225,1.6,2.0,1,0.00,,,0.00,WUHU216HW,2013-07-01 22:33:00,
2013-07-01 18:38:00,72.0,12.5,29.91,SE,135,2.5,2.5,1,0.00,,,0.00,WUHU216HW,2013-07-01 22:38:00,
2013-07-01 18:43:00,71.8,12.4,29.92,SSW,203,3.8,3.8,1,0.00,,,0.00,WUHU216HW,2013-07-01 22:43:00,
2013-07-01 18:48:00,71.8,12.4,29.92,SW,225,3.8,3.8,1,0.00,,,0.00,WUHU216HW,2013-07-01 22:48:00,
2013-07-01 18:53:00,71.8,12.4,29.92,SSW,203,0.9,3.8,1,0.00,,,0.00,WUHU216HW,2013-07-01 22:53:00,
2013-07-01 18:58:00,71.8,12.4,29.92,WSW,248,2.2,3.8,1,0.00,,,0.00,WUHU216HW,2013-07-01 22:58:00,
2013-07-01 19:03:00,71.6,12.2,29.93,SSW,203,0.7,3.1,1,0.00,,,0.00,WUHU216HW,2013-07-01 23:03:00,
2013-07-01 19:08:00,71.6,12.2,29.92,SSW,203,1.1,2.5,1,0.00,,,0.00,WUHU216HW,2013-07-01 23:08:00,
2013-07-01 19:13:00,71.6,12.2,29.93,SW,225,1.1,2.2,1,0.00,,,0.00,WUHU216HW,2013-07-01 23:13:00,
2013-07-01 19:18:00,71.6,12.2,29.93,South,180,4.3,4.3,1,0.00,,,0.00,WUHU216HW,2013-07-01 23:18:00,
2013-07-01 19:23:00,71.6,12.2,29.93,SW,225,1.1,4.7,1,0.00,,,0.00,WUHU216HW,2013-07-01 23:23:00,
2013-07-01 19:28:00,71.6,12.2,29.93,SSW,203,0.9,4.7,1,0.00,,,0.00,WUHU216HW,2013-07-01 23:28:00,
2013-07-01 19:33:00,71.5,12.1,29.93,SW,225,2.0,3.4,1,0.00,,,0.00,WUHU216HW,2013-07-01 23:33:00,
2013-07-01 19:38:00,71.3,12.0,29.94,WSW,248,1.1,3.4,1,0.00,,,0.00,WUHU216HW,2013-07-01 23:38:00,
2013-07-01 19:43:00,71.3,12.0,29.94,SSW,203,1.6,2.7,1,0.00,,,0.00,WUHU216HW,2013-07-01 23:43:00,
2013-07-01 19:48:00,71.3,12.0,29.94,SSE,158,3.1,3.1,1,0.00,,,0.00,WUHU216HW,2013-07-01 23:48:00,
2013-07-01 19:53:00,71.1,11.8,29.94,South,180,1.6,3.1,1,0.00,,,0.00,WUHU216HW,2013-07-01 23:53:00,
2013-07-01 19:58:00,71.1,11.8,29.95,WSW,248,3.4,3.4,1,0.00,,,0.00,WUHU216HW,2013-07-01 23:58:00,
2013-07-01 20:03:00,70.9,11.7,29.95,SW,225,1.1,3.6,1,0.00,,,0.00,WUHU216HW,2013-07-02 00:03:00,
2013-07-01 20:08:00,70.9,11.7,29.95,South,180,2.5,3.6,1,0.00,,,0.00,WUHU216HW,2013-07-02 00:08:00,
2013-07-01 20:13:00,70.9,11.7,29.95,SSE,158,2.5,2.9,1,0.00,,,0.00,WUHU216HW,2013-07-02 00:13:00,
2013-07-01 20:18:00,70.9,11.7,29.95,South,180,1.1,4.7,1,0.00,,,0.00,WUHU216HW,2013-07-02 00:18:00,
2013-07-01 20:23:00,70.9,11.7,29.95,SSW,203,1.8,4.7,1,0.00,,,0.00,WUHU216HW,2013-07-02 00:23:00,
2013-07-01 20:28:00,70.7,11.5,29.96,South,180,1.3,1.8,1,0.00,,,0.00,WUHU216HW,2013-07-02 00:28:00,
2013-07-01 20:33:00,70.7,11.5,29.96,SSW,203,1.8,1.8,1,0.00,,,0.00,WUHU216HW,2013-07-02 00:33:00,
2013-07-01 20:38:00,70.7,11.5,29.96,SSW,203,1.6,4.0,1,0.00,,,0.00,WUHU216HW,2013-07-02 00:38:00,
2013-07-01 20:43:00,70.6,11.3,29.96,SW,225,2.9,4.0,1,0.00,,,0.00,WUHU216HW,2013-07-02 00:43:00,
2013-07-01 20:48:00,70.6,11.3,29.96,SSW,203,2.5,2.9,1,0.00,,,0.00,WUHU216HW,2013-07-02 00:48:00,
2013-07-01 20:53:00,70.6,11.3,29.96,SW,225,1.1,2.9,1,0.00,,,0.00,WUHU216HW,2013-07-02 00:53:00,
2013-07-01 20:58:00,70.6,11.3,29.96,SSW,203,0.7,2.9,1,0.00,,,0.00,WUHU216HW,2013-07-02 00:58:00,
2013-07-01 21:03:00,70.4,11.3,29.96,SW,225,1.8,1.8,1,0.00,,,0.00,WUHU216HW,2013-07-02 01:03:00,
2013-07-01 21:08:00,70.4,11.3,29.96,WNW,293,2.5,2.5,1,0.00,,,0.00,WUHU216HW,2013-07-02 01:08:00,
2013-07-01 21:13:00,70.4,11.3,29.96,SSW,203,1.8,2.5,1,0.00,,,0.00,WUHU216HW,2013-07-02 01:13:00,
2013-07-01 21:18:00,70.4,11.3,29.96,South,180,2.0,2.7,1,0.00,,,0.00,WUHU216HW,2013-07-02 01:18:00,
2013-07-01 21:23:00,70.2,11.1,29.96,SW,225,1.8,3.4,1,0.00,,,0.00,WUHU216HW,2013-07-02 01:23:00,
2013-07-01 21:28:00,70.2,11.1,29.96,South,180,1.3,3.4,1,0.00,,,0.00,WUHU216HW,2013-07-02 01:28:00,
2013-07-01 21:33:00,70.2,11.1,29.97,SW,225,1.8,2.2,1,0.00,,,0.00,WUHU216HW,2013-07-02 01:33:00,
2013-07-01 21:38:00,70.2,11.1,29.96,South,180,2.5,2.5,1,0.00,,,0.00,WUHU216HW,2013-07-02 01:38:00,
2013-07-01 21:43:00,70.2,11.1,29.96,SSW,203,1.1,2.5,1,0.00,,,0.00,WUHU216HW,2013-07-02 01:43:00,
2013-07-01 21:48:00,70.2,11.1,29.97,SSE,158,4.0,4.0,1,0.00,,,0.00,WUHU216HW,2013-07-02 01:48:00,
2013-07-01 21:53:00,70.2,11.1,29.96,South,180,1.1,4.0,1,0.00,,,0.00,WUHU216HW,2013-07-02 01:53:00,
2013-07-01 21:58:00,70.2,11.1,29.97,SSW,203,1.1,2.9,1,0.00,,,0.00,WUHU216HW,2013-07-02 01:58:00,
2013-07-01 22:03:00,70.2,11.1,29.97,South,180,1.1,4.3,1,0.00,,,0.00,WUHU216HW,2013-07-02 02:03:00,
2013-07-01 22:08:00,70.2,11.1,29.97,WSW,248,1.1,4.3,1,0.00,,,0.00,WUHU216HW,2013-07-02 02:08:00,
2013-07-01 22:13:00,70.2,11.1,29.97,SSE,158,1.6,2.9,1,0.00,,,0.00,WUHU216HW,2013-07-02 02:13:00,
2013-07-01 22:18:00,70.2,11.1,29.97,SSW,203,1.8,2.9,1,0.00,,,0.00,WUHU216HW,2013-07-02 02:18:00,
2013-07-01 22:23:00,70.2,11.1,29.97,SW,225,1.8,2.2,1,0.00,,,0.00,WUHU216HW,2013-07-02 02:23:00,
2013-07-01 22:28:00,70.2,11.1,29.97,ESE,113,1.1,2.7,1,0.00,,,0.00,WUHU216HW,2013-07-02 02:28:00,
2013-07-01 22:33:00,70.2,11.1,29.97,SSW,203,0.4,2.7,1,0.00,,,0.00,WUHU216HW,2013-07-02 02:33:00,
2013-07-01 22:38:00,70.2,11.1,29.97,SSE,158,1.3,1.8,1,0.00,,,0.00,WUHU216HW,2013-07-02 02:38:00,
2013-07-01 22:43:00,70.2,11.1,29.97,SSW,203,1.1,1.8,1,0.00,,,0.00,WUHU216HW,2013-07-02 02:43:00,
2013-07-01 22:48:00,70.2,11.1,29.97,SSW,203,0.7,1.8,1,0.00,,,0.00,WUHU216HW,2013-07-02 02:48:00,
2013-07-01 22:53:00,70.2,11.1,29.97,WSW,248,2.2,2.2,1,0.00,,,0.00,WUHU216HW,2013-07-02 02:53:00,
2013-07-01 22:58:00,70.2,11.1,29.97,SW,225,1.8,3.1,1,0.00,,,0.00,WUHU216HW,2013-07-02 02:58:00,
2013-07-01 23:03:00,70.2,11.1,29.97,SE,135,0.9,3.1,1,0.00,,,0.00,WUHU216HW,2013-07-02 03:03:00,
2013-07-01 23:08:00,70.2,11.1,29.98,SSE,158,2.5,3.4,1,0.00,,,0.00,WUHU216HW,2013-07-02 03:08:00,
2013-07-01 23:13:00,70.2,11.1,29.98,SW,225,1.1,3.4,1,0.00,,,0.00,WUHU216HW,2013-07-02 03:13:00,
2013-07-01 23:18:00,70.2,11.1,29.98,SW,225,1.3,3.4,1,0.00,,,0.00,WUHU216HW,2013-07-02 03:18:00,
2013-07-01 23:23:00,70.2,11.1,29.97,SSE,158,1.8,3.4,1,0.00,,,0.00,WUHU216HW,2013-07-02 03:23:00,
2013-07-01 23:28:00,70.2,11.1,29.98,ESE,113,1.8,3.4,1,0.00,,,0.00,WUHU216HW,2013-07-02 03:28:00,
2013-07-01 23:33:00,70.2,11.1,29.98,SE,135,2.5,2.5,1,0.00,,,0.00,WUHU216HW,2013-07-02 03:33:00,
2013-07-01 23:39:00,70.2,11.1,29.98,SW,225,1.8,2.5,1,0.00,,,0.00,WUHU216HW,2013-07-02 03:39:00,
2013-07-01 23:44:00,70.2,11.1,29.98,WSW,248,1.3,2.7,1,0.00,,,0.00,WUHU216HW,2013-07-02 03:44:00,
2013-07-01 23:49:00,70.2,11.1,29.98,SW,225,2.5,3.4,1,0.00,,,0.00,WUHU216HW,2013-07-02 03:49:00,
2013-07-01 23:59:00,70.2,11.1,29.98,SSE,158,0.9,2.2,1,0.00,,,0.00,WUHU216HW,2013-07-02 03:59:00,